Probability
3 6 6 0 3 0 0 0 0 0 0 0 0 0 0 0 0 0 0 0 0 0 0 0 0 0 0 0 0 0 0 0 3 0 0 0 0 0 0 0 0 0 0
3 3 6 3 3 3 0 3 3 3 3 3 0 0 0 0 0 0 0 0 0 0 0 0 0 0 0 0 0 0 0 0 0 0 0 0 0 0 0 0 0 0 0
3 3 6 6 6 3 3 3 3 3 3 3 3 3 0 0 0 0 0 0 0 0 0 0 0 0 0 0 0 0 0 0 0 0 0 0 0 0 0 0 0 0 0
3 3 3 6 3 6 6 3 3 3 3 3 3 3 3 3 0 0 0 0 0 0 0 0 0 0 0 0 0 0 0 0 0 0 0 0 0 0 0 0 0 0 0
3 3 3 6 6 6 6 6 6 3 3 3 3 3 3 3 3 3 0 0 0 0 0 0 0 0 0 0 0 0 0 0 0 0 0 0 0 0 0 0 0 0 0
3 3 6 6 6 6 6 6 3 3 3 3 3 3 3 3 3 0 0 3 0 0 0 0 0 0 0 0 0 0 0 0 0 0 0 0 0 0 0 0 0 0 0
6 6 3 6 6 6 6 3 3 3 3 3 3 3 3 3 0 0 0 0 0 0 0 0 0 0 0 0 0 0 0 0 0 0 0 0 0 0 0 0 0 0 0
3 3 3 3 3 3 3 3 3 0 0 0 0 0 3 3 0 0 0 0 0 0 0 0 0 0 0 0 0 0 0 0 0 0 0 0 0 0 0 0 0 0 0
3 3 3 3 3 3 3 3 3 0 0 0 0 0 0 0 0 0 0 0 0 0 0 0 0 0 0 0 0 0 0 0 0 0 0 0 0 0 0 0 0 0 0
3 3 3 3 3 3 3 0 0 0 0 0 0 0 0 0 0 0 0 0 0 0 0 0 0 0 0 0 0 0 0 0 0 0 0 0 0 0 0 0 0 0 0
3 3 3 3 3 3 0 0 0 0 0 0 0 0 0 0 0 0 0 0 0 0 0 0 0 0 0 0 0 0 0 0 0 0 0 0 0 0 0 0 0 0 0
3 3 0 0 0 0 0 0 0 0 0 0 0 0 0 0 0 0 0 0 0 0 0 0 0 0 0 0 0 0 0 0 0 0 0 0 0 0 0 0 0 0 0
0 0 0 0 0 0 0 3 0 0 0 0 0 0 0 0 0 0 0 0 0 0 0 0 0 0 0 0 0 0 0 0 0 0 0 0 0 0 0 0 0 0 0
0 0 0 0 0 0 0 0 3 0 0 0 0 0 0 0 0 0 0 0 0 0 0 0 0 0 0 0 0 0 0 0 0 0 0 0 0 0 0 0 0 0 0
0 0 0 0 0 0 0 0 0 3 3 0 0 0 0 0 0 0 0 0 0 0 0 0 0 0 0 0 0 0 0 0 0 0 0 0 0 0 0 0 0 0 0
0 0 0 0 0 0 0 0 0 0 0 0 0 0 0 0 0 0 0 0 0 0 0 0 0 0 0 0 0 0 0 0 0 0 0 0 0 0 0 0 0 0 0
0 0 0 0 0 0 0 0 0 0 0 0 0 0 0 0 0 0 0 0 0 0 0 0 0 0 0 0 0 0 0 0 0 0 0 0 0 0 0 0 0 0 0
0 0 0 0 0 0 0 0 0 0 0 0 0 0 0 0 0 0 0 0 0 0 0 0 0 0 0 0 0 0 0 0 0 0 0 0 0 0 0 0 0 0 0
0 0 0 0 0 0 0 0 0 0 0 0 0 0 0 0 0 0 0 0 0 0 0 0 0 0 0 0 0 0 0 0 0 0 0 0 0 0 0 0 0 0 0
0 0 0 0 0 0 0 0 0 0 0 0 0 0 0 0 0 0 0 0 0 0 0 0 0 0 0 0 0 0 0 0 0 0 0 0 0 0 0 0 0 0 0
0 0 0 0 0 0 0 0 0 0 0 0 0 0 0 0 0 0 0 0 0 0 0 0 0 0 0 0 0 0 0 0 0 0 0 0 0 0 0 0 0 0 0
0 0 0 0 0 0 0 0 0 0 0 0 0 0 0 0 0 0 0 0 0 0 0 0 0 0 0 0 0 0 0 0 0 0 0 0 0 0 0 0 0 0 0
0 0 0 0 0 0 0 0 0 0 0 0 0 0 0 0 0 0 0 0 0 0 0 0 0 0 0 0 0 0 0 0 0 0 0 0 0 0 0 0 0 0 0
0 0 0 0 0 0 0 0 0 0 0 0 0 0 0 0 0 0 0 0 0 0 0 0 0 0 0 0 0 0 0 0 0 0 0 0 0 0 0 0 0 0 0
0 0 0 0 0 0 0 0 0 0 0 0 0 0 0 0 0 0 0 0 0 0 0 0 0 0 0 0 0 0 0 0 0 0 0 0 0 0 0 0 0 0 0
0 0 0 0 0 0 0 0 0 0 0 0 0 0 0 0 0 0 0 0 0 0 0 0 0 0 0 0 0 0 0 0 0 0 0 0 0 0 0 0 0 0 0
Height
5790 5790 5789 5789 5789 5790 5791 5792 5792 5792 5793 5793 5795 5796 5798 5799 5801 5802 5803 5804 5805 5806 5808 5809 5809 5810 5810 5810 5811 5811 5811 5811 5810 5809 5808 5807 5806 5805 5804 5803 5802 5802 5801
5785 5784 5784 5784 5785 5785 5786 5786 5787 5787 5788 5788 5790 5791 5792 5793 5794 5796 5797 5798 5799 5800 5802 5802 5803 5804 5804 5805 5805 5805 5805 5804 5804 5803 5802 5801 5800 5799 5798 5797 5796 5796 5795
5780 5779 5779 5779 5780 5780 5781 5781 5782 5782 5783 5783 5784 5785 5786 5787 5789 5790 5791 5792 5793 5794 5795 5796 5797 5797 5798 5798 5798 5798 5798 5798 5797 5797 5796 5795 5794 5793 5792 5791 5790 5790 5789
5775 5774 5774 5774 5775 5775 5776 5776 5776 5777 5777 5778 5778 5779 5780 5781 5782 5783 5784 5785 5786 5787 5788 5789 5790 5791 5791 5791 5792 5791 5791 5791 5790 5790 5789 5788 5787 5786 5786 5785 5784 5784 5783
5769 5769 5769 5770 5770 5770 5770 5771 5771 5771 5771 5772 5772 5773 5773 5774 5776 5777 5778 5779 5780 5781 5781 5782 5783 5784 5784 5785 5785 5784 5784 5783 5783 5782 5782 5781 5780 5779 5779 5778 5778 5777 5777
5765 5765 5765 5765 5765 5765 5765 5765 5765 5765 5766 5766 5766 5767 5767 5768 5769 5770 5771 5772 5773 5774 5775 5775 5776 5777 5777 5777 5777 5777 5776 5776 5775 5775 5774 5774 5773 5772 5771 5771 5771 5771 5770
5759 5760 5760 5760 5760 5760 5760 5760 5760 5760 5760 5760 5760 5761 5761 5762 5763 5764 5764 5765 5766 5767 5767 5768 5769 5769 5770 5770 5770 5769 5769 5768 5768 5767 5767 5767 5766 5765 5764 5764 5764 5763 5763
5754 5754 5755 5755 5755 5755 5754 5754 5754 5754 5754 5754 5754 5755 5755 5756 5756 5757 5758 5758 5759 5760 5760 5761 5761 5762 5762 5762 5762 5762 5761 5761 5760 5760 5760 5759 5759 5758 5757 5757 5756 5757 5756
5749 5749 5749 5749 5750 5750 5749 5749 5749 5749 5748 5748 5748 5748 5749 5749 5750 5750 5750 5751 5752 5752 5753 5753 5754 5754 5755 5755 5755 5754 5754 5753 5752 5751 5751 5751 5751 5751 5750 5750 5750 5749 5749
5743 5743 5743 5744 5744 5744 5744 5744 5743 5743 5742 5742 5742 5742 5742 5743 5743 5743 5743 5744 5744 5745 5745 5746 5746 5746 5747 5746 5747 5746 5746 5745 5744 5743 5743 5743 5743 5743 5743 5742 5742 5742 5742
5736 5737 5737 5738 5738 5738 5738 5737 5737 5736 5736 5736 5735 5735 5735 5735 5735 5735 5736 5736 5736 5737 5737 5738 5738 5738 5738 5738 5738 5738 5738 5737 5736 5735 5735 5735 5735 5735 5735 5735 5735 5735 5735
5729 5730 5731 5731 5731 5731 5731 5731 5730 5730 5729 5729 5728 5728 5728 5728 5728 5728 5728 5728 5728 5729 5729 5729 5730 5730 5730 5730 5729 5730 5729 5728 5728 5728 5727 5727 5727 5727 5727 5727 5727 5727 5727
5723 5723 5724 5724 5724 5724 5724 5724 5724 5723 5723 5722 5722 5722 5721 5721 5721 5720 5720 5720 5720 5721 5721 5721 5721 5721 5721 5721 5721 5721 5721 5720 5720 5720 5720 5720 5719 5719 5719 5719 5719 5719 5719
5715 5716 5717 5717 5717 5717 5717 5717 5717 5716 5716 5715 5715 5714 5714 5714 5713 5713 5713 5713 5713 5713 5713 5713 5713 5713 5713 5713 5713 5713 5713 5713 5713 5713 5712 5712 5712 5712 5712 5712 5712 5712 5712
5708 5708 5709 5709 5710 5710 5710 5710 5710 5709 5708 5708 5708 5707 5707 5707 5707 5706 5706 5706 5705 5705 5705 5705 5705 5705 5705 5705 5705 5705 5705 5705 5705 5705 5705 5704 5704 5704 5704 5704 5704 5704 5704
5699 5700 5701 5701 5701 5702 5702 5702 5702 5702 5701 5701 5700 5700 5700 5700 5699 5699 5699 5698 5698 5698 5698 5698 5698 5697 5697 5697 5697 5697 5697 5697 5697 5697 5697 5697 5697 5696 5697 5697 5697 5697 5696
5691 5691 5692 5693 5693 5693 5694 5694 5694 5694 5693 5693 5693 5692 5692 5692 5692 5692 5692 5691 5691 5690 5690 5690 5690 5690 5690 5690 5689 5689 5689 5689 5689 5689 5689 5689 5689 5689 5689 5689 5689 5689 5689
5683 5683 5684 5684 5684 5685 5685 5685 5686 5686 5686 5685 5685 5685 5685 5685 5685 5684 5684 5684 5684 5684 5684 5683 5683 5683 5682 5682 5682 5682 5682 5682 5682 5682 5682 5682 5682 5682 5682 5682 5682 5682 5682
5675 5675 5675 5675 5675 5676 5676 5676 5677 5677 5677 5677 5677 5677 5677 5677 5677 5677 5677 5677 5677 5677 5677 5677 5676 5676 5675 5675 5675 5676 5676 5676 5676 5676 5676 5676 5676 5676 5676 5675 5675 5675 5675
5666 5666 5666 5666 5667 5667 5667 5667 5668 5668 5669 5669 5669 5669 5670 5670 5670 5670 5670 5670 5670 5670 5670 5670 5670 5669 5669 5668 5669 5669 5669 5669 5669 5669 5670 5670 5669 5669 5669 5668 5668 5668 5669
5657 5658 5658 5658 5658 5658 5658 5659 5659 5660 5661 5661 5661 5661 5662 5662 5662 5663 5663 5662 5662 5663 5663 5663 5663 5662 5662 5662 5662 5662 5662 5663 5663 5663 5663 5663 5663 5662 5662 5662 5662 5662 5662
5648 5649 5649 5649 5650 5650 5650 5650 5651 5652 5652 5653 5653 5653 5653 5654 5654 5655 5655 5655 5655 5655 5656 5656 5656 5656 5655 5655 5655 5656 5656 5656 5656 5656 5656 5656 5656 5656 5656 5655 5655 5655 5655
5640 5640 5641 5641 5642 5642 5642 5642 5643 5643 5644 5644 5645 5645 5646 5646 5647 5647 5647 5648 5648 5648 5648 5649 5649 5649 5649 5649 5649 5649 5649 5650 5650 5650 5650 5650 5649 5649 5649 5649 5649 5649 5649
5631 5632 5632 5633 5633 5634 5634 5634 5635 5635 5636 5636 5637 5638 5638 5639 5639 5639 5640 5640 5641 5641 5641 5641 5642 5642 5642 5642 5642 5642 5643 5643 5643 5643 5643 5643 5643 5643 5643 5643 5642 5642 5642
5624 5624 5625 5625 5626 5626 5626 5626 5627 5627 5628 5629 5629 5630 5630 5631 5631 5632 5632 5633 5633 5634 5634 5634 5635 5635 5635 5635 5635 5635 5636 5636 5636 5636 5636 5636 5636 5636 5636 5636 5636 5636 5636
5616 5617 5617 5618 5618 5618 5618 5619 5619 5620 5620 5621 5621 5622 5622 5623 5623 5624 5625 5625 5626 5626 5626 5627 5627 5628 5628 5628 5628 5629 5629 5629 5629 5629 5629 5629 5629 5629 5629 5629 5629 5629 5629
Wind_Speed
18 17 16 16 17 18 19 19 19 19 18 18 19 20 21 21 22 22 22 21 21 22 22 22 22 22 21 21 20 21 21 21 21 21 22 22 22 22 22 22 21 21 21
17 17 17 17 17 18 18 19 19 19 19 19 20 21 22 22 21 21 21 22 22 23 23 23 23 23 23 23 22 22 23 23 22 23 23 22 22 22 22 22 21 21 22
17 17 17 17 17 17 18 19 19 19 19 19 20 21 22 22 21 21 22 22 22 23 23 24 24 23 23 23 24 24 24 24 23 23 23 22 23 23 22 22 22 22 21
18 17 17 17 17 18 19 20 20 20 20 20 20 21 22 22 22 22 23 24 23 23 23 24 23 23 24 24 24 24 24 24 24 24 24 23 23 23 23 22 22 22 22
19 17 17 16 17 17 18 20 20 20 20 20 20 20 21 22 23 23 23 24 24 24 24 23 23 24 24 25 25 25 25 25 25 25 25 24 24 24 23 23 22 22 22
19 18 18 17 17 17 18 19 19 19 20 20 19 20 21 22 22 22 23 23 24 25 25 24 24 24 24 25 25 25 25 25 25 25 25 25 25 24 24 23 23 23 23
19 19 18 18 18 18 19 19 19 19 20 20 19 19 20 21 22 22 23 23 23 25 25 25 25 25 25 25 25 25 25 26 26 26 25 25 25 24 24 24 24 24 23
19 19 20 19 18 18 18 19 19 20 21 21 20 20 21 21 22 23 24 24 24 24 24 25 25 25 25 25 25 25 26 26 26 26 26 26 25 24 24 24 24 24 23
20 20 19 19 19 19 19 19 19 20 20 21 20 21 22 23 23 23 24 24 24 24 24 25 25 26 26 27 26 26 26 26 26 26 26 26 26 25 25 24 24 24 24
21 20 19 19 19 19 19 20 20 21 21 21 21 22 23 24 24 24 24 24 25 25 25 26 26 26 26 27 27 27 27 27 27 26 26 26 26 26 25 25 25 25 25
22 22 21 21 20 20 20 20 20 20 21 22 22 22 22 23 23 24 24 25 25 25 26 26 27 27 27 27 28 28 27 27 27 26 26 26 26 26 26 26 26 25 25
22 22 22 21 21 21 21 20 20 21 21 21 22 22 22 22 22 22 23 24 24 24 25 25 26 27 27 27 27 26 26 26 26 26 26 26 26 26 26 27 26 26 26
22 22 22 22 22 22 21 21 21 21 21 21 21 21 21 21 22 22 22 23 23 24 24 25 26 26 27 26 26 26 25 25 25 25 25 25 25 25 25 26 26 26 25
23 23 23 23 23 23 22 22 22 21 21 21 22 23 22 21 21 22 22 22 23 24 24 25 25 26 25 26 25 25 25 24 24 24 24 24 24 24 24 24 24 23 24
25 25 25 25 25 24 23 22 22 22 21 22 22 23 23 22 22 21 21 22 23 24 24 24 24 25 25 24 24 25 25 24 23 23 23 23 24 24 23 23 23 24 24
25 25 25 26 26 26 25 24 24 23 22 23 23 23 23 22 22 21 21 21 22 22 23 23 23 23 24 24 24 25 25 25 24 24 24 23 24 23 23 23 23 23 23
25 25 25 26 26 26 25 25 24 24 24 24 23 23 22 23 23 22 22 21 20 20 20 21 21 22 22 23 22 23 23 24 24 23 23 23 22 22 22 22 22 22 21
25 26 26 26 27 27 26 26 25 24 24 24 23 23 22 22 23 22 22 21 20 19 19 19 20 21 21 21 21 21 22 22 22 21 21 21 21 21 21 21 21 21 21
25 25 25 26 26 27 27 27 26 25 24 24 24 23 23 22 22 22 22 21 20 20 19 19 19 19 20 20 20 20 20 20 20 20 20 20 20 20 20 20 20 20 20
25 25 25 25 25 26 26 26 25 24 24 23 23 23 23 23 22 22 22 21 21 20 20 19 20 19 19 19 19 20 20 20 20 20 20 20 20 20 20 21 21 21 21
25 26 25 25 25 25 25 26 25 24 23 23 23 24 24 24 23 23 22 22 22 21 20 20 21 20 20 19 19 20 20 20 20 20 20 20 20 20 19 19 19 20 20
25 25 24 24 24 24 25 25 24 24 23 23 23 23 23 24 23 23 23 23 22 22 21 21 20 20 19 19 19 19 20 20 20 21 21 21 20 20 19 18 19 19 20
24 24 23 23 23 22 23 23 22 22 23 23 23 23 23 23 23 23 23 23 23 23 23 22 22 21 20 20 20 20 20 20 21 21 20 20 20 20 19 19 19 19 20
23 23 22 22 22 22 23 22 22 22 22 23 23 22 22 23 23 23 23 23 23 23 23 23 23 23 22 22 22 21 21 20 20 20 20 20 20 20 20 20 20 19 19
21 21 21 21 22 22 22 22 22 22 23 23 23 22 23 23 22 22 23 23 24 24 24 23 23 24 23 23 23 22 22 21 21 21 21 20 20 20 20 20 20 20 20
20 20 20 20 20 21 21 20 20 21 22 23 23 23 22 23 23 23 23 24 24 24 24 24 24 23 23 23 22 22 22 22 22 21 21 21 21 21 21 20 21 21 20
Wind_Direction
276 274 273 270 266 263 261 259 257 258 254 251 250 249 249 251 253 254 254 256 257 259 258 259 262 264 266 268 269 271 274 277 280 279 280 281 283 284 284 283 282 279 277
274 273 271 269 268 265 261 261 259 257 255 254 254 255 254 254 255 255 257 258 258 257 258 260 261 264 266 268 270 272 274 276 278 280 279 280 281 284 283 282 281 279 277
272 271 272 271 267 264 262 260 261 259 256 257 258 258 256 256 257 258 259 259 259 257 258 260 262 264 266 269 271 272 274 275 278 278 279 279 280 282 281 281 280 279 277
269 268 270 269 266 265 263 262 261 260 259 260 261 260 260 259 259 261 261 260 259 260 259 260 262 264 266 269 271 272 272 274 276 278 278 279 279 280 279 279 278 278 276
269 267 266 267 267 266 266 265 264 263 262 261 262 260 260 261 261 262 263 261 259 261 261 260 262 264 266 269 272 272 273 274 275 276 277 278 279 279 278 276 276 277 276
266 267 266 265 265 267 268 268 268 267 265 263 262 263 262 262 262 261 263 263 262 262 262 262 262 264 266 269 272 273 274 275 276 276 276 276 279 278 277 276 275 275 276
263 265 266 265 264 266 268 270 271 268 267 265 265 265 262 261 262 262 262 264 264 265 265 264 264 266 268 270 273 274 275 276 276 275 274 274 276 277 277 277 276 275 275
264 265 266 265 265 265 266 268 269 268 267 266 266 264 264 264 264 264 264 264 264 265 265 266 266 267 268 270 273 274 276 277 277 276 273 273 274 275 275 277 275 274 274
266 269 267 268 269 267 268 270 271 271 269 267 266 265 265 265 266 266 266 266 266 264 264 265 266 268 269 271 272 275 276 278 278 275 273 272 272 274 275 276 275 274 274
265 265 266 267 269 270 273 273 273 272 269 268 268 268 266 265 265 266 267 268 267 265 265 265 267 268 270 271 272 275 276 277 277 274 272 272 272 273 274 274 274 274 275
264 263 263 266 268 270 272 274 273 272 271 271 270 270 270 269 267 266 267 268 268 266 266 267 267 268 270 271 272 274 275 276 275 273 271 271 271 272 272 272 272 274 275
264 262 261 263 266 268 270 272 273 273 274 273 271 271 272 272 271 268 267 268 269 267 267 267 267 269 271 271 272 273 274 274 275 273 271 270 272 272 272 270 271 273 275
263 263 262 260 263 268 271 272 273 273 274 274 273 272 273 273 272 271 269 268 269 268 267 267 268 269 269 269 270 270 271 272 273 273 271 270 271 272 272 271 271 274 275
263 263 262 263 265 268 269 271 273 273 273 273 274 272 273 273 273 272 270 269 270 270 269 269 270 271 270 269 268 268 270 272 273 273 272 271 271 272 272 272 273 274 275
265 265 264 265 266 267 268 269 274 274 273 274 274 273 273 273 272 272 271 271 271 272 271 270 271 271 270 271 271 270 269 271 272 273 273 273 273 272 273 273 274 275 277
264 265 264 263 264 266 267 269 272 273 273 273 274 273 273 273 272 271 270 269 270 271 272 272 272 271 270 270 270 270 269 269 270 272 272 272 273 271 271 272 274 276 277
267 266 264 264 265 266 267 269 270 272 272 272 273 272 272 273 272 271 269 269 270 271 271 271 271 271 270 271 271 270 270 271 270 270 271 272 273 272 272 273 274 277 278
266 266 266 265 267 266 267 269 270 270 269 270 270 270 271 272 272 270 267 267 268 270 270 271 271 271 271 271 271 272 271 271 271 271 270 272 273 273 273 272 273 275 277
267 267 266 266 267 266 266 267 268 268 268 268 269 269 269 269 270 270 267 267 268 270 270 269 270 272 272 272 272 272 271 271 272 271 270 272 273 272 272 271 273 274 276
268 269 269 268 268 267 267 267 266 266 266 265 266 265 264 265 267 267 266 268 268 269 270 271 272 272 272 271 271 270 270 270 271 270 270 271 272 273 274 273 273 273 274
271 269 269 268 268 267 268 267 265 265 264 262 263 264 263 263 264 264 265 267 267 267 268 269 272 273 273 272 270 269 268 268 268 269 271 272 273 274 275 275 275 274 274
271 269 268 268 267 267 268 266 264 262 262 263 263 264 263 262 262 262 264 265 266 266 266 268 270 271 272 270 268 268 268 268 269 270 271 272 272 273 273 274 275 275 274
270 268 268 266 265 266 266 265 263 261 261 263 264 265 264 262 262 261 261 263 264 265 266 267 269 270 270 269 267 267 268 269 268 269 271 273 272 272 272 273 274 276 276
269 268 268 267 265 265 266 264 262 261 260 262 263 264 265 263 262 262 261 262 263 265 266 267 270 270 270 269 267 266 267 269 269 271 272 274 275 274 273 274 274 276 276
271 270 268 267 266 267 267 265 263 262 262 263 263 264 263 262 261 261 262 262 263 265 266 267 269 270 271 270 268 268 267 268 269 271 272 273 274 275 275 275 276 276 277
272 270 268 268 270 269 267 266 264 263 264 265 263 262 262 262 261 261 261 263 264 265 266 266 267 267 269 270 268 267 268 269 270 271 272 272 274 275 275 274 275 274 275